Location: Worth Mountain WMA
(34.9569°N, 81.4819°W)
Time: 07:56:09
(UTC-04:00)

Daily predictions for brighter satellites

Satellite Brightness Start Highest point End
(mag) Time Altitude Azimuth Time Altitude Azimuth Time Altitude Azimuth
ATLAS CENTAUR R/B 3.0 19:26:17 10° SSW 19:30:11 74° SE 19:41:53 10° NE
Cosmos 2333 Rocket 4.2 19:28:21 10° WSW 19:33:26 32° WNW 19:38:33 10° N
Blok-ML 4.5 19:29:36 10° NW 19:35:44 81° WSW 19:41:32 10° SSE
SJ-6B 3.6 19:32:41 10° SE 19:36:15 33° ENE 19:39:53 10° N
Okean 3 Rocket 3.6 19:33:19 10° N 19:37:52 66° E 19:42:21 10° SSE
Helios 1A 4.5 19:36:48 10° ESE 19:39:38 18° ENE 19:42:29 10° NNE
FREGAT/IRIS 3.9 19:37:15 10° SE 19:39:44 22° ENE 19:42:13 10° NNE
Resurs 01 Rocket 2.8 19:37:53 10° ESE 19:41:20 22° ENE 19:44:47 10° NNE
NOSS 3-2 (A) 3.8 19:38:08 10° SW 19:44:06 73° WNW 19:50:35 10° NNE
Cosmos 1758 4.0 19:44:46 10° SSE 19:48:27 34° E 19:52:10 10° NNE
ASTRO E2 3.2 19:45:06 10° WSW 19:49:02 50° S 19:52:46 11° ESE
SEDSat Delta rocket 4.2 19:42:58 10° WSW 19:49:26 66° S 19:55:51 12° E
Cosmos 1484 Rocket 3.0 19:47:08 10° S 19:50:56 76° W 19:54:50 10° NNW
Cosmos 1452 Rocket 4.1 19:47:22 10° N 19:52:14 37° ENE 19:57:04 10° SE
ATLAS 5 CENTAUR R/B 1.9 19:49:11 10° SSW 19:53:52 83° WNW 19:58:57 10° NNE
Abrixas 2.4 19:51:44 10° SW 19:54:43 74° SE 19:57:41 10° NE
Timation 1 Rocket 4.4 19:50:51 10° NNW 19:56:47 64° ENE 20:02:42 10° SSE
Cosmos 1437 3.9 19:54:34 10° NNW 19:57:44 48° W 20:00:53 10° S
Cosmos 1072 Rocket 4.4 19:54:31 10° S 20:00:37 87° E 20:06:45 10° N
COSMO-SKYMED 1 4.2 20:00:03 10° N 20:04:06 39° WNW 20:08:07 10° SW
Cosmos 1766 4.5 20:07:44 10° SSW 20:11:32 46° W 20:15:23 10° N
ASTEX 1 4.2 20:09:10 10° NNE 20:13:24 28° E 20:17:35 10° SSE
Atlas Centaur 2 3.9 20:05:31 10° W 20:13:27 43° SSW 20:20:44 11° SE
SL-16 R/B 3.7 20:09:38 10° SW 20:14:56 39° WNW 20:20:16 10° N
CENTAUR R/B 2.9 20:10:20 10° S 20:15:40 37° ESE 20:21:32 10° NE
Cosmos 1544 3.2 20:14:04 10° S 20:17:40 50° E 20:21:19 10° NNE
METEOR-M 4.1 20:13:46 10° SSE 20:19:05 72° ENE 20:24:26 10° N
Helios 1B rocket 2.3 20:15:33 10° NNE 20:19:40 73° ESE 20:23:46 10° S
NOSS 3-3 (A) 4.5 20:12:57 10° NNW 20:20:33 83° ENE 20:28:34 10° SSE
NOSS 3-3 (C) 4.5 20:13:03 10° NNW 20:20:39 82° ENE 20:28:40 10° SSE
NOSS 3-2 (C) 4.5 20:17:24 10° SW 20:23:12 48° NW 20:29:31 10° NNE
Cosmos 1766 Rocket 3.5 20:19:02 10° N 20:23:25 88° ENE 20:27:44 10° S
CZ-2D R/B 4.4 20:24:44 25° ENE 20:24:44 25° ENE 20:27:52 10° NNE
Spot 1 4.2 20:20:54 10° SSE 20:25:42 86° ENE 20:30:13 10° NNW
Spot 2 Rocket 3.4 20:21:08 10° SSE 20:26:09 74° ENE 20:31:11 10° N
OAO 3 Rocket 3.1 20:22:53 10° W 20:27:39 89° N 20:30:04 30° E
Cosmos 1076 Rocket 4.0 20:24:46 10° NNW 20:29:04 62° W 20:33:21 10° S
Cosmos 1048 Rocket 4.0 20:23:52 10° S 20:29:06 62° ESE 20:34:18 10° NNE
Cosmos 1269 Rocket 3.9 20:24:23 10° S 20:29:37 75° ESE 20:34:54 10° NNE
FENGYUN 3A 3.9 20:28:51 16° SE 20:32:48 46° ENE 20:37:56 10° N
Cosmos-2242 3.2 20:28:38 10° SSW 20:32:59 74° W 20:37:22 10° N
Cosmos 2034 Rocket 4.2 20:29:16 10° SSW 20:35:29 73° W 20:41:49 10° N
H-2A R/B 3.4 20:39:09 36° ENE 20:39:09 36° ENE 20:42:20 10° N
ATLAS CENTAUR R/B 4.2 20:37:43 10° WNW 20:39:40 13° WSW 20:41:33 10° SW
Cosmos 1805 4.3 20:36:31 10° SSW 20:40:18 47° W 20:44:07 10° N
Gbstr 26 Del rocket 3.1 20:36:05 10° SW 20:40:20 70° SE 20:42:57 28° ENE
Cosmos 1953 3.4 20:37:50 10° SSW 20:41:40 45° W 20:45:30 10° N
Cosmos 1174 4.2 20:37:54 10° SSW 20:42:56 54° ESE 20:44:15 38° ENE
ISS -2.8 20:40:02 10° WSW 20:43:14 57° NW 20:44:07 40° NNE
ALOS 2.2 20:42:16 26° SSE 20:44:44 62° ENE 20:49:22 10° N
HJ-1C 4.4 20:43:39 10° S 20:46:54 47° W 20:50:10 10° NNW
Cosmos 1842 Rocket 3.4 20:48:24 10° S 20:52:43 83° E 20:57:04 10° N
Meteosat 1 Rocket2 4.3 20:46:46 10° WSW 20:52:46 34° S 20:53:40 32° SSE
Cosmos 158 Rocket 3.7 20:49:28 10° S 20:54:17 61° ESE 20:59:05 10° NNE
Cosmos 1500 Rocket 3.4 20:52:10 10° N 20:56:36 69° E 20:57:01 64° ESE
Cosmos 1943 3.0 20:51:31 10° SSW 20:57:06 71° ESE 21:02:43 10° NNE
USA 215 3.8 20:52:05 10° NE 20:58:26 56° NW 21:04:46 10° WSW
GPS 2-04 Rocket1 2.7 20:55:10 10° WSW 20:58:12 64° WSW 20:58:12 64° WSW
Cosmos 1943 Rocket 4.0 20:55:56 10° NNE 20:58:07 16° NE 20:58:07 16° NE
Cosmos 2369 Rocket 2.7 20:54:31 10° N 20:59:45 40° ENE 20:59:45 40° ENE
Cosmos 1470 2.9 20:59:53 10° SSW 21:03:45 69° W 21:07:38 10° N
OAO 1 Rocket 4.3 21:07:29 10° W 21:12:52 90° S 21:13:15 78° E
SeaSat 1 2.3 21:15:13 73° SSE 21:15:13 73° SSE 21:19:44 10° SSW
Resurs 01 Rocket 3.6 21:13:49 10° SSW 21:17:37 28° W 21:21:27 10° NW
Cosmos 1674 3.8 21:18:15 10° NNW 21:21:24 44° WNW 21:21:24 44° WNW
SEDSat Delta rocket 4.3 21:29:25 10° W 21:35:59 55° SSW 21:35:59 55° SSW
Cosmos 839 Rocket 4.1 21:37:24 10° NNW 21:44:15 74° NNE 21:44:15 74° NNE
Cosmos 1655 Rocket 4.4 21:51:13 10° N 21:55:58 55° NNW 21:55:58 55° NNW
CENTAUR R/B 3.9 22:00:47 10° WSW 22:06:14 34° NW 22:12:20 10° NNE
Cosmos 2369 Rocket 4.5 22:39:09 10° NW 22:41:35 20° WNW 22:41:35 20° WNW
